Regional Weather Roundup
Issued by NWS

Home | Current Version | Previous Version | Text Only | Print | Product List | Glossary On
Versions: 1 2 3 4 5 6 7 8 9 10 11 12 13 14 15 16 17 18 19 20 21 22 23 24 25 26 27 28 29 30 31 32 33 34 35 36 37 38 39 40 41 42 43 44 45 46 47 48 49 50
000
ASUS44 KMEG 041010
RWRTN
TENNESSEE HOURLY STATE WEATHER ROUNDUP
NATIONAL WEATHER SERVICE MEMPHIS TN
400 AM CST SUN DEC 04 2016

TNZ002-004-019-021-049-052-054-088>092-041100-
WEST TENNESSEE

CITY           SKY/WX    TMP DP  RH WIND       PRES   REMARKS
MEMPHIS INTL   LGT RAIN  42  42 100 NE8       30.04F FOG
NWS MEMPHIS      N/A     41 N/A N/A MISG        N/A
JACKSON        CLOUDY    42  32  67 NE7       30.09S
DYERSBURG      CLOUDY   N/A N/A N/A E8        30.07F
UNION CITY     CLOUDY    37  37 100 N5        30.11S WCI  34
PARIS          CLOUDY    37  36  93 E5        30.11F WCI  34
HUNTINGDON     CLOUDY    39  39 100 NE3       30.11S FOG
LEXINGTON      CLOUDY    41  39  93 N5        30.08R
$$

TNZ008-025-027-028-033-062-065-066-041100-
NORTH MIDDLE TENNESSEE

CITY           SKY/WX    TMP DP  RH WIND       PRES   REMARKS
NASHVILLE      LGT RAIN  41  39  93 E7        30.12F
PORTLAND       CLOUDY    39  39 100 SE6       30.12F WCI  35
CLARKSVILLE    LGT RAIN  40  37  89 N6        30.14R
SMYRNA         LGT RAIN  41  40  96 E7        30.13F
CROSSVILLE     LGT RAIN  37  35  92 E6        30.14F FOG     WCI  32
$$

TNZ061-075-076-078-094-096-097-041100-
SOUTH MIDDLE TENNESSEE

CITY           SKY/WX    TMP DP  RH WIND       PRES   REMARKS
FAYETTEVILLE   CLOUDY    43  43 100 E8        30.10S FOG
TULLAHOMA      CLOUDY    39  39 100 SE5       30.12F
WINCHESTER     CLOUDY    41  39  93 SE6       30.14S
MCMINNVILLE    MOCLDY    39  39 100 CALM      30.12F
COLUMBIA         N/A    N/A N/A N/A SE7       30.06F
SHELBYVILLE    MOCLDY    43  43 100 E6        30.12S
$$

TNZ017-018-042-046-047-041100-
NORTHEAST TENNESSEE

CITY           SKY/WX    TMP DP  RH WIND       PRES   REMARKS
TRI CITIES     LGT RAIN  38  35  89 CALM      30.21F
ELIZABETHTON   LGT RAIN  39  37  93 CALM      30.20F
$$

TNZ012-013-036-069-073-074-041100-
CENTRAL EAST TENNESSEE

CITY           SKY/WX    TMP DP  RH WIND       PRES   REMARKS
KNOXVILLE      RAIN      39  37  92 N8        30.19R FOG     WCI  33
OAK RIDGE      LGT RAIN  40  37  89 NE3       30.22S FOG
DOWNTOWN KNOXV CLOUDY    41  39  93 CALM      30.21S FOG
GATLINBURG     CLOUDY    37  36  93 NE3       30.19S
MORRISTOWN     CLOUDY    37  36  93 E7        30.18S WCI  32
JACKSBORO      CLOUDY    39  37  93 CALM      30.23F FOG
$$

TNZ083-085-099-041100-
SOUTHEAST TENNESSEE

CITY           SKY/WX    TMP DP  RH WIND       PRES   REMARKS
CHATTANOOGA    LGT RAIN  42  39  89 NE7       30.18F FOG
$$

SKY/WX REPORTED AS FAIR MEANS FEW OR NO CLOUDS BELOW
12 THOUSAND FEET.





USA.gov is the U.S. government's official web portal to all federal, state and local government web resources and services.